Retour au catalogue

STARLINK-35247

ActifCommunicationsVLEO
NORAD 65622·PAYLOAD·🇺🇸 United States

Lancé Sep 18, 2025 depuis Cape Canaveral Space Force Station

Loading…

Prochains Passages (prochaines 24 heures)

TLE

FraisSource: CelesTrak SupGP

Époque: Sep 14, 2026, 21:13 UTC

1 65622C 25210A   26257.88451389 -.00052948  00000+0 -15641-2 0  2574
2 65622  53.1584 147.7624 0001358  88.0104 328.4863 15.34421637    19

Suivez STARLINK-35247 en temps réel avec AllMySat

Download on the App Store